Laredo, TX

2:40 PM CST on November 19, 2017 (GMT -0600)
Laredo International

Weather History for KLRD - March, 2014

Change the Weather History Date:

Thursday, March 20, 2014

  Actual Average Record
Temperature  
Mean Temperature 69 °F 69 °F  
Max Temperature 80 °F 81 °F 100 °F (1932)
Min Temperature 58 °F 58 °F 31 °F (1918)
Degree Days  
Heating Degree Days 0 2  
Month to date heating degree days 93 57  
Since 1 July heating degree days 1084 901  
Cooling Degree Days 4 6  
Month to date cooling degree days 46 94  
Year to date cooling degree days 158 179  
Growing Degree Days 19 (Base 50)    
Moisture  
Dew Point 49 °F    
Average Humidity 51    
Maximum Humidity 70    
Minimum Humidity 37    
Precipitation  
Precipitation 0.00 in 0.03 in 1.27 in (1908)
Month to date precipitation 1.04 0.75  
Year to date precipitation 1.25 2.59  
Sea Level Pressure  
Sea Level Pressure 30.12 in    
Wind  
Wind Speed 8 mph (East)    
Max Wind Speed 17 mph    
Max Gust Speed 20 mph    
Visibility 10 miles    
Events      
T = Trace of Precipitation, MM = Missing Value Source: NWS Daily Summary

Daily Weather History Graph

Daily Weather History Graph

Search for Another Location

Airport or City:

Trip Planner

Search our weather history database for the weather conditions in past years. The results will help you decide how hot, cold, wet, or windy it might be!

Date:

Astronomy

Mar. 20, 2014 Rise Set
Actual Time 7:41 AM CDT 7:49 PM CDT
Civil Twilight 7:18 AM CDT 8:12 PM CDT
Nautical Twilight 6:51 AM CDT 8:39 PM CDT
Astronomical Twilight 6:23 AM CDT 9:07 PM CDT
Moon 11:48 PM CDT (3/20) 10:09 AM CDT (3/20)
Length of Visible Light 12h 54m
Length of Day
12h 07m
Waning Gibbous, 84% of the Moon is Illuminated
Mar 20
Waning Gibbous
Mar 23
Last Quarter
Mar 30
New
Apr 7
First Quarter
Apr 15
Full

Hourly Weather History & Observations

Time (CDT) Temp. Dew Point Humidity Pressure Visibility Wind Dir Wind Speed Gust Speed Precip Events Conditions
12:56 AM 64.9 °F 50.0 °F 58% 30.15 in 10.0 mi NE 4.6 mph - N/A   Mostly Cloudy
1:56 AM 64.9 °F 50.0 °F 58% 30.15 in 10.0 mi NNE 4.6 mph - N/A   Overcast
2:56 AM 63.9 °F 50.9 °F 63% 30.14 in 10.0 mi NNW 4.6 mph - N/A   Overcast
3:56 AM 61.0 °F 50.0 °F 67% 30.14 in 10.0 mi NNE 6.9 mph - N/A   Partly Cloudy
4:56 AM 59.9 °F 46.9 °F 62% 30.14 in 10.0 mi NE 10.4 mph - N/A   Mostly Cloudy
5:56 AM 59.9 °F 43.9 °F 55% 30.14 in 10.0 mi NE 13.8 mph - N/A   Scattered Clouds
6:56 AM 59.0 °F 41.9 °F 53% 30.16 in 10.0 mi NE 13.8 mph - N/A   Mostly Cloudy
7:56 AM 59.0 °F 41.0 °F 51% 30.17 in 10.0 mi ENE 11.5 mph - N/A   Overcast
8:56 AM 59.9 °F 41.0 °F 50% 30.19 in 10.0 mi NE 12.7 mph - N/A   Overcast
9:56 AM 61.9 °F 41.0 °F 46% 30.22 in 10.0 mi ENE 10.4 mph - N/A   Overcast
10:56 AM 64.9 °F 41.9 °F 43% 30.22 in 10.0 mi East 8.1 mph - N/A   Overcast
11:24 AM 68.0 °F 42.8 °F 40% 30.24 in 10.0 mi NE 5.8 mph - N/A   Overcast
11:56 AM 70.0 °F 43.0 °F 38% 30.20 in 10.0 mi ESE 4.6 mph - N/A   Scattered Clouds
12:56 PM 72.0 °F 47.8 °F 42% 30.18 in 10.0 mi East 5.8 mph - N/A   Overcast
1:56 PM 72.9 °F 48.9 °F 43% 30.15 in 10.0 mi Variable 3.5 mph - N/A   Mostly Cloudy
2:56 PM 74.8 °F 50.9 °F 43% 30.12 in 10.0 mi Variable 4.6 mph - N/A   Overcast
3:56 PM 77.0 °F 50.9 °F 40% 30.08 in 10.0 mi Variable 4.6 mph - N/A   Scattered Clouds
4:56 PM 79.0 °F 52.0 °F 39% 30.06 in 10.0 mi South 5.8 mph - N/A   Scattered Clouds
5:56 PM 79.0 °F 52.9 °F 40% 30.03 in 10.0 mi SW 5.8 mph - N/A   Clear
6:56 PM 77.9 °F 54.0 °F 43% 30.02 in 10.0 mi SSE 11.5 mph - N/A   Partly Cloudy
7:56 PM 75.9 °F 54.0 °F 46% 30.02 in 10.0 mi SE 9.2 mph - N/A   Partly Cloudy
8:56 PM 72.9 °F 54.9 °F 53% 30.03 in 10.0 mi South 8.1 mph - N/A   Partly Cloudy
9:56 PM 70.9 °F 56.8 °F 61% 30.04 in 10.0 mi South 8.1 mph - N/A   Overcast
10:56 PM 70.0 °F 57.9 °F 65% 30.04 in 10.0 mi South 8.1 mph - N/A   Overcast
11:56 PM 70.0 °F 59.0 °F 68% 30.03 in 10.0 mi SSE 10.4 mph - N/A   Overcast